Find Starlink 36552

NORAD ID: 67503 Int'l Des: 2026-012 Owner: SPXS Country: US Constellation: starlink operational
LEOCIRCULAR

Current View

Loading 3D Globe...

About Starlink 36552

Description loading...

Upcoming Passes

Passes for default location (London). Set your location on the main map for personalized predictions.

Altitude History

Loading altitude history...

Two-Line Element Set

1 67503U 26012L 26144.99560184 .00013995 00000-0 51703-3 0 9997
2 67503 42.9989 243.3097 0001499 291.0868 68.9823 15.27585116 19433
Epoch: May 24, 2026 • Age: 33 hours

Current Status

Altitude 490.2 km
Velocity 7.62 km/s
Sub-Earth Point -30.58°S, 176.99°W
Launch Date Jan 18, 2026
Age 0.3 years
Type internet

Technical Details

Classification Payload
Mass 575.00 kg
Dry Mass 530.00 kg
Total Mass 575.00 kg
Length 0.30 m
Diameter 4.10 m
Span 29.00 m
Shape Box + pan
Manufacturer SPXS
Bus Type Starlink V2MO
Phase Status In Orbit
Owner/State SPXS/US

Most Searched